Regional Weather Roundup
Issued by NWS Upton, NY

Current Version | Previous Version | Graphics & Text | Print | Product List | Glossary Off
Versions: 1 2 3 4 5 6 7 8 9 10 11 12 13 14 15 16 17 18 19 20 21 22 23 24 25 26 27 28 29 30 31 32 33 34 35 36 37 38 39 40 41 42 43 44 45 46 47 48

000
ASUS41 KOKX 031104
RWROKX

REGIONAL WEATHER ROUNDUP
NATIONAL WEATHER SERVICE NEW YORK NY
700 AM EDT MON AUG 03 2015

NOTE: "FAIR" INDICATES FEW OR NO CLOUDS BELOW 12,000 FEET WITH NO
SIGNIFICANT WEATHER AND/OR OBSTRUCTIONS TO VISIBILITY.

NYZ071-072-176-178-NJZ106-104-031200-
NEW YORK CITY METRO AREA


CITY           SKY/WX    TMP DP  RH WIND       PRES   REMARKS
CENTRAL PARK   SUNNY     75  61  61 VRB3      29.87S
LAGUARDIA APRT MOSUNNY   77  60  55 S8        29.84S
KENNEDY INTL   MOSUNNY   74  65  73 SW5       29.86S
NEWARK/LIBERTY MOSUNNY   73  64  73 SW5       29.84S
BRNX BOT. GARD   N/A     75  59  57 SW5       29.86R
TETERBORO      SUNNY     73  62  68 SW7       29.83S
$$

NYZ177-179-078>081-031200-
LONG ISLAND NEW YORK

CITY           SKY/WX    TMP DP  RH WIND       PRES   REMARKS
FARMINGDALE    SUNNY     73  64  73 SW5       29.86S
ISLIP          MOSUNNY   74  66  76 SW8       29.84S
SHIRLEY        SUNNY     75  70  84 S8        29.87S
WESTHAMPTON    SUNNY     75  72  90 S5        29.88F
MONTAUK POINT    N/A     75  70  84 VRB6      29.88S
$$

NYZ052-065-067-031200-
HUDSON VALLEY

CITY           SKY/WX    TMP DP  RH WIND       PRES   REMARKS
WHITE PLAINS   SUNNY     73  61  65 CALM      29.85S
NEWBURGH       SUNNY     68  61  77 CALM      29.84R
MONTGOMERY     SUNNY     66  61  84 SW8       29.83S
POUGHKEEPSIE   SUNNY     65  60  84 CALM      29.82R
ALBANY         PTSUNNY   71  58  63 S9        29.79R
$$

NJZ001-105-106-008-010-013-015-019>022-104-031200-
NEW JERSEY

CITY           SKY/WX    TMP DP  RH WIND       PRES   REMARKS
NEWARK/LIBERTY MOSUNNY   73  64  73 SW5       29.84S
TETERBORO      SUNNY     73  62  68 SW7       29.83S
CALDWELL       SUNNY     67  59  75 CALM      29.86R
MORRISTOWN     SUNNY     63  59  88 SE3       29.85S
SOMERVILLE     SUNNY     62  58  86 CALM      29.84R
SUSSEX         LGT RAIN  61  58  90 SW3       29.85R
ANDOVER          N/A     63  61  93 CALM      29.88R
TRENTON        SUNNY     69  64  84 VRB3      29.86R
MILLVILLE      CLEAR     66  63  90 CALM      29.88R
ATLANTIC CITY  SUNNY     71  67  87 SW3       29.88R
WRIGHTSTOWN    NOT AVBL
TOMS RIVER       N/A     66  64  94 SW3       29.87S
BELMAR         SUNNY     68  61  77 SW5       29.87S
$$

PAZ047>061-062-071-031200-
EASTERN PENNSYLVANIA

CITY           SKY/WX    TMP DP  RH WIND       PRES   REMARKS
PHILADELPHIA   PTCLDY    73  65  75 S8        29.87R
ALLENTOWN      CLEAR     64  60  87 NW3       29.86R
SCRANTON       CLEAR     67  59  75 CALM      29.86R
$$

CTZ002-004>006-009-010-012-RIZ004-006-007-MAZ004-011-015-031200-
SOUTHERN NEW ENGLAND
 IN CT

CITY           SKY/WX    TMP DP  RH WIND       PRES   REMARKS
BRADLEY INTL   PTSUNNY   70  67  90 S5        29.84R
HARTFORD       SUNNY     72  66  81 S5        29.84R
DANBURY        SUNNY     71  60  68 CALM      29.87R
WTRBRY/OXFORD  SUNNY     70  59  68 SW5       29.88S
BRIDGEPORT     SUNNY     75  67  76 SW5       29.85R
MERIDEN        SUNNY     68  65  90 CALM      29.85R
NEW HAVEN      MOSUNNY   73  67  81 SW5       29.85S
CHESTER        FAIR      70  66  88 S3        29.88S
GROTON         SUNNY     72  70  93 S6        29.86S
WILLIMANTIC    FOG       65  63  93 CALM      29.86S VSB 1/4

 IN RI

CITY           SKY/WX    TMP DP  RH WIND       PRES   REMARKS
PROVIDENCE     MOSUNNY   71  69  93 S5        29.87S
BLOCK ISLAND     N/A     73  73 100 SW12      29.89S
WESTERLY       SUNNY     73  69  87 SW5       29.87F

 IN MA

CITY           SKY/WX    TMP DP  RH WIND       PRES   REMARKS
BOSTON         MOSUNNY   71  68  90 S8        29.86R
WORCESTER      SUNNY     66  63  90 S9        29.88R
WESTFIELD      MOSUNNY   65  63  93 CALM      29.83F
PROVINCETOWN   SUNNY     73  64  73 S10       29.88S
NANTUCKET      SUNNY     73  70  90 S6        29.91R FOG
$$

ANZ330-335-338-340-345-350-353-355-031200-
COASTAL MARINE OBSERVATIONS


STATION/POSITION TIME  SKY/WX   TEMP    WIND        PRES    VSBY  WAVE
                                AIR SEA DIR/SP/G                  HT/PER
                 (UTC)          (F)     (DEG/KT/KT) (MB)    (MI)  (FT/S)
NY HARB ENTRANCE 0950            74 70  230/ 10/ 12 1010.7          3/ 8
4S FIRE IS       NOT AVBL
20S FIRE ISLAND  0950            76 76  230/ 10/ 12 1011.1          3/ 7
GREAT SOUTH BAY  1030            76 80  260/ 10/ 12   N/A
23SW MTP         1050            76 74  210/ 10/ 12 1011.4          3/ 8
HUDSON CANYON    NOT AVBL
KINGS POINT      1000            74 70  180/  4/  7 1010.0
EXECUTION ROCKS  1000            73     180/  4/  4   N/A
CENTRAL LI SOUND NOT AVBL
EASTERN LI SOUND 1000            71 68  240/  8/ 10   N/A
ROBBINS REEF     1000            74     250/  8/ 11 1009.5
$$


>>>>>>>>>>>>>>>>>>>>>>>>>>>> KEY <<<<<<<<<<<<<<<<<<<<<<<<<<<
>                                                          <
>     SKY/WX - SKY CONDITION/PRESENT WEATHER               <
>     TMP    - TEMPERATURE IN FAHRENHEIT                   <
>     DP     - DEWPOINT IN FAHRENHEIT                      <
>     RH     - RELATIVE HUMIDITY IN PERCENT                <
>     WIND   - DIRECTION AND SPEED IN MPH                  <
>     PRES   - MEAN SEA LEVEL PRESSURE IN INCHES OF HG     <
>     WCI    - WIND CHILL INDEX                            <
>     VSB    - VISIBILITY IN MILES                         <
>     HX     - HEAT INDEX                                  <
>     TC     - TEMPERATURE IN CELSIUS                      <
>     VRB    - VARIABLE WIND DIRECTION                     <
>                                                          <
>>>>>>>>>>>>>>>>>>>>>>>>>>>> KEY <<<<<<<<<<<<<<<<<<<<<<<<<<<




USA.gov is the U.S. government's official web portal to all federal, state and local government web resources and services.